Chehalis, WA
on Saturday, December 22, 2012

Saturday
Previous Day Next Day
Daily Summary
 ActualAverage (KOLM)Record (KOLM)
Temperature
Mean Temperature °F 38°F  
Max Temperature 46°F 44°F 55°F (1950)
Min Temperature 39°F 32°F -3°F (1983)
Degree Days
Heating Degree Days 22 27  
Month to date heating degree days 583  
Since 1 July heating degree days 2028  
Cooling Degree Days 0 0  
Month to date cooling degree days 0  
Year to date cooling degree days 106  
Moisture
Dew Point 39°F   
Average Humidity 91    
Maximum Humidity 100    
Minimum Humidity 71    
Precipitation
Precipitation 0.12 in 0.22 in 1.42 in (1950)
Month to date precipitation 5.38  
Year to date precipitation 47.92  
Wind
Wind Speed 6 mph   
Max Wind Speed 20 mph   
Max Gust Speed 30 mph   
Visibility 8 miles   
Events Rain   

Key: T is trace of precipitation, MM is missing value
Source: NWS Daily Summary
Time(PST)TemperatureDew PointHumidity Pressure Visibility Wind DirectionWind SpeedGust SpeedPrecipitationEvents Conditions
12:15 AM 39.2°F 39.2°F 100% 29.63 in 7.0 miles NNE 3.5 mph - 0.01 in   Overcast
12:35 AM 39.2°F 39.2°F 100% 29.63 in 5.0 miles Calm Calm - 0.01 in   Mostly Cloudy
12:55 AM 39.2°F 39.2°F 100% 29.63 in 4.0 miles NE 3.5 mph - 0.01 in   Partly Cloudy
1:15 AM 39.2°F 37.4°F 93% 29.62 in 4.0 miles East 3.5 mph - N/A   Mostly Cloudy
1:55 AM 39.2°F 39.2°F 100% 29.62 in 6.0 miles Calm Calm - N/A   Overcast
2:15 AM 39.2°F 39.2°F 100% 29.61 in 5.0 miles Calm Calm - N/A   Overcast
2:55 AM 39.2°F 39.2°F 100% 29.60 in 7.0 miles North 3.5 mph - 0.01 in Rain Light Rain
3:15 AM 39.2°F 39.2°F 100% 29.59 in 8.0 miles NNE 4.6 mph - N/A Rain Light Rain
3:55 AM 39.2°F 39.2°F 100% 29.57 in 9.0 miles NNE 4.6 mph - N/A   Overcast
4:15 AM 39.2°F 39.2°F 100% 29.57 in 7.0 miles Calm Calm - N/A Rain Light Rain
4:35 AM 39.2°F 39.2°F 100% 29.56 in 5.0 miles NNE 3.5 mph - 0.01 in   Overcast
4:55 AM 39.2°F 37.4°F 93% 29.55 in 5.0 miles NNE 4.6 mph - 0.01 in   Overcast
5:15 AM 39.2°F 37.4°F 93% 29.55 in 5.0 miles Calm Calm - N/A   Overcast
5:35 AM 39.2°F 37.4°F 93% 29.55 in 5.0 miles Calm Calm - N/A Rain Light Rain
5:55 AM 39.2°F 39.2°F 100% 29.54 in 5.0 miles Calm Calm - N/A Rain Light Rain
6:15 AM 39.2°F 39.2°F 100% 29.53 in 4.0 miles Calm Calm - N/A Rain Light Rain
6:35 AM 39.2°F 37.4°F 93% 29.53 in 8.0 miles Calm Calm - N/A   Overcast
6:55 AM 39.2°F 37.4°F 93% 29.52 in 9.0 miles West 3.5 mph - N/A   Overcast
7:15 AM 39.2°F 37.4°F 93% 29.52 in 7.0 miles Calm Calm - N/A   Mostly Cloudy
7:35 AM 39.2°F 39.2°F 100% 29.52 in 9.0 miles SSW 4.6 mph - N/A   Mostly Cloudy
7:55 AM 39.2°F 39.2°F 100% 29.53 in 10.0 miles South 3.5 mph - N/A   Mostly Cloudy
8:15 AM 39.2°F 39.2°F 100% 29.53 in 8.0 miles South 3.5 mph - N/A   Overcast
8:35 AM 39.2°F 39.2°F 100% 29.53 in 8.0 miles South 3.5 mph - N/A   Overcast
8:55 AM 41.0°F 39.2°F 93% 29.53 in 10.0 miles SSW 3.5 mph - 0.01 in   Overcast
9:15 AM 41.0°F 39.2°F 93% 29.53 in 5.0 miles SSE 4.6 mph - N/A   Overcast
9:35 AM 41.0°F 39.2°F 93% 29.54 in 9.0 miles SSW 5.8 mph - N/A   Overcast
9:55 AM 42.8°F 39.2°F 87% 29.55 in 10.0 miles South 5.8 mph - N/A   Overcast
10:15 AM 44.6°F 39.2°F 81% 29.55 in 10.0 miles SSE 6.9 mph - N/A   Overcast
10:35 AM 44.6°F 39.2°F 81% 29.55 in 9.0 miles South 6.9 mph 17.3 mph N/A   Overcast
10:55 AM 44.6°F 39.2°F 81% 29.55 in 10.0 miles South 9.2 mph - N/A   Overcast
11:15 AM 44.6°F 39.2°F 81% 29.54 in 10.0 miles SSE 17.3 mph 21.9 mph N/A   Overcast
11:35 AM 44.6°F 39.2°F 81% 29.54 in 10.0 miles South 12.7 mph 23.0 mph N/A   Overcast
11:55 AM 46.4°F 37.4°F 71% 29.55 in 10.0 miles South 13.8 mph 26.5 mph N/A   Overcast
12:15 PM 46.4°F 37.4°F 71% 29.54 in 10.0 miles South 17.3 mph 25.3 mph N/A   Mostly Cloudy
12:35 PM 46.4°F 39.2°F 76% 29.55 in 7.0 miles South 18.4 mph 28.8 mph N/A   Mostly Cloudy
1:15 PM 42.8°F 39.2°F 87% 29.56 in 2.5 miles SSW 10.4 mph 27.6 mph 0.04 in Rain Light Rain
1:35 PM 44.6°F 39.2°F 81% 29.56 in 5.0 miles South 16.1 mph 24.2 mph 0.04 in   Scattered Clouds
1:55 PM 44.6°F 39.2°F 81% 29.55 in 9.0 miles South 17.3 mph 23.0 mph 0.04 in Rain Light Rain
2:15 PM 44.6°F 39.2°F 81% 29.56 in 8.0 miles South 17.3 mph 29.9 mph N/A   Scattered Clouds
2:35 PM 44.6°F 39.2°F 81% 29.57 in 8.0 miles South 15.0 mph 20.7 mph N/A Rain Light Rain
2:55 PM 42.8°F 39.2°F 87% 29.59 in 4.0 miles South 19.6 mph 26.5 mph 0.02 in Rain Light Rain
3:15 PM 42.8°F 39.2°F 87% 29.59 in 7.0 miles South 12.7 mph 26.5 mph N/A   Scattered Clouds
3:35 PM 42.8°F 39.2°F 87% 29.61 in 5.0 miles South 13.8 mph 18.4 mph N/A   Mostly Cloudy
3:55 PM 42.8°F 39.2°F 87% 29.62 in 4.0 miles South 9.2 mph - N/A   Overcast
4:15 PM 42.8°F 39.2°F 87% 29.62 in 10.0 miles South 11.5 mph 18.4 mph N/A   Overcast
4:35 PM 42.8°F 39.2°F 87% 29.63 in 7.0 miles South 11.5 mph 18.4 mph N/A   Overcast
4:55 PM 42.8°F 39.2°F 87% 29.64 in 7.0 miles South 12.7 mph 18.4 mph N/A   Overcast
5:15 PM 42.8°F 39.2°F 87% 29.65 in 7.0 miles South 15.0 mph 24.2 mph N/A   Overcast
5:35 PM 42.8°F 39.2°F 87% 29.66 in 10.0 miles South 9.2 mph 17.3 mph N/A   Mostly Cloudy
5:55 PM 42.8°F 39.2°F 87% 29.67 in 10.0 miles South 11.5 mph 19.6 mph N/A   Overcast
6:15 PM 41.0°F 39.2°F 93% 29.68 in 9.0 miles South 11.5 mph 17.3 mph N/A Rain Light Rain
6:35 PM 41.0°F 37.4°F 87% 29.68 in 10.0 miles South 11.5 mph - N/A   Overcast
6:55 PM 41.0°F 39.2°F 93% 29.68 in 9.0 miles South 10.4 mph 17.3 mph N/A   Overcast
7:15 PM 41.0°F 39.2°F 93% 29.69 in 10.0 miles South 12.7 mph 20.7 mph N/A   Overcast
7:35 PM 41.0°F 37.4°F 87% 29.69 in 10.0 miles South 16.1 mph 24.2 mph N/A Rain Light Rain
7:55 PM 41.0°F 37.4°F 87% 29.70 in 5.0 miles South 12.7 mph 21.9 mph N/A Rain Light Rain
8:15 PM 41.0°F 37.4°F 87% 29.71 in 7.0 miles South 11.5 mph 17.3 mph N/A Rain Light Rain
8:35 PM 39.2°F 37.4°F 93% 29.71 in 8.0 miles South 9.2 mph 19.6 mph N/A Rain Light Rain
8:55 PM 39.2°F 37.4°F 93% 29.71 in 10.0 miles South 9.2 mph - N/A   Overcast
9:15 PM 41.0°F 39.2°F 93% 29.72 in 10.0 miles South 8.1 mph 16.1 mph N/A   Overcast
9:35 PM 41.0°F 39.2°F 93% 29.73 in 8.0 miles SSW 6.9 mph - 0.01 in   Overcast
9:55 PM 41.0°F 39.2°F 93% 29.73 in 10.0 miles South 10.4 mph - 0.01 in   Overcast
10:15 PM 41.0°F 39.2°F 93% 29.73 in 10.0 miles South 10.4 mph 16.1 mph N/A   Overcast
10:35 PM 41.0°F 39.2°F 93% 29.73 in 10.0 miles South 10.4 mph 16.1 mph N/A   Overcast
10:55 PM 41.0°F 39.2°F 93% 29.74 in 9.0 miles South 12.7 mph 18.4 mph N/A   Overcast
11:15 PM 41.0°F 37.4°F 87% 29.74 in 10.0 miles South 12.7 mph 20.7 mph N/A   Overcast
11:35 PM 41.0°F 39.2°F 93% 29.75 in 10.0 miles South 11.5 mph - N/A   Overcast
11:55 PM 41.0°F 39.2°F 93% 29.75 in 6.0 miles South 13.8 mph - 0.01 in   Overcast
Moon Phase
Dec. 22 Dec. 28 Jan. 04 Jan. 11 Jan. 18
Sunrise:07:54 AM (PST) Moon Rise:12:58 PM (PST)
Sunset:04:27 PM (PST) Moon Set:02:33 AM (PST)

Copyright © 2014 The Weather Underground, Inc.